Regional Weather Roundup
Issued by NWS

Home | Current Version | Previous Version | Text Only | Print | Product List | Glossary On
Versions: 1 2 3 4 5 6 7 8 9 10 11 12 13 14 15 16 17 18 19 20 21 22 23 24 25 26 27 28 29 30 31 32 33 34 35 36 37 38 39 40 41 42 43 44 45 46 47 48 49 50
000
ASUS43 KDTX 310601
RWRMI
MICHIGAN HOURLY REGIONAL WEATHER ROUNDUP
NATIONAL WEATHER SERVICE DETROIT/PONTIAC MI
200 AM EDT SUN JUL 31 2016

NOTE: "FAIR" INDICATES FEW OR NO CLOUDS BELOW 12,000 FEET WITH NO
SIGNIFICANT WEATHER AND/OR OBSTRUCTION TO VISIBILITY.

MIZ047>049-052>055-059>063-066>070-074>076-081>083-310700-
SOUTHEAST LOWER MICHIGAN

CITY           SKY/WX    TMP DP  RH WIND       PRES   REMARKS
ADRIAN         MOCLDY    67  67 100 NE6       29.98F
6HR MIN TEMP:  66; 6HR MAX TEMP:  70; 6HR PCP:  1.89;

ALMA           DRIZZLE   65  65 100 NW5       30.03F
ANN ARBOR      CLEAR     67  66  97 N5        29.98S
BAD AXE        RAIN      64  63  97 NE3       30.04F
CARO           RAIN      64  62  96 NE5       30.01F
DETROIT CITY   CLOUDY    69  65  86 N3        29.97F
6HR MIN TEMP:  69; 6HR MAX TEMP:  75;

DETROIT        CLOUDY    69  64  84 N6        29.97F
6HR MIN TEMP:  69; 6HR MAX TEMP:  76; 6HR PCP:  0.01;

FLINT          CLOUDY    69  64  84 NE7       30.01S
6HR MIN TEMP:  68; 6HR MAX TEMP:  72; 6HR PCP:  0.05;

GROSSE ILE     CLOUDY    70  66  88 N5        29.96S
6HR MIN TEMP:  70; 6HR MAX TEMP:  75; 6HR PCP:  0.05;

HILLSDALE      PTCLDY    65  64  96 CALM      29.99S FOG
6HR MIN TEMP:  59; 6HR MAX TEMP:  87; 6HR PCP:  0.33;

HOWELL         CLOUDY    65  64  95 N3        30.00S
6HR MIN TEMP:  65; 6HR MAX TEMP:  70;


CITY           SKY/WX    TMP DP  RH WIND       PRES   REMARKS
JACKSON        CLOUDY    66  65  96 N7        30.00F
6HR MIN TEMP:  66; 6HR MAX TEMP:  71;

LAMBERTVILLE   PTCLDY    70  67  89 CALM      29.97F
6HR MIN TEMP:  69; 6HR MAX TEMP:  76;

LANSING        CLOUDY    65  62  90 NE6       30.02F
6HR MIN TEMP:  65; 6HR MAX TEMP:  69;

LAPEER         DRIZZLE   65  64  96 N5        30.01F
6HR MIN TEMP:  65; 6HR MAX TEMP:  70; 6HR PCP:  0.05;

MASON          MOCLDY    64  62  92 NW6       30.01S
MONROE         CLOUDY    69  68  97 N7        29.96F
6HR MIN TEMP:  69; 6HR MAX TEMP:  75;

MT. CLEMENS    CLOUDY    67  65  94 N6        29.96F
6HR MIN TEMP:  67; 6HR MAX TEMP:  73; 6HR PCP: TRACE;

PONTIAC        CLOUDY    66  63  90 N5        29.99S
6HR MIN TEMP:  66; 6HR MAX TEMP:  73;

PORT HOPE        N/A     70  66  87 NE12      30.02F
6HR MIN TEMP:  67; 6HR MAX TEMP:  71; 6HR PCP:  0.47;

PORT HURON     CLOUDY    68  61  77 NE5       29.98F
TRI CITIES     LGT RAIN  67  65  93 NE6       30.03F
6HR MIN TEMP:  66; 6HR MAX TEMP:  67; 6HR PCP:  0.01;

MIDLAND        CLOUDY    64  63  97 CALM      30.02F
6HR MIN TEMP:  64; 6HR MAX TEMP:  66; 6HR PCP:  0.04;

TROY           MOCLDY    69  64  85 N6        30.00S
SAGINAW HB     DRIZZLE   64  63  94 NE3       30.02F
$$
MIZ043>046-050>051-056>058-064>065-071>073-077>080-310700-
SOUTHWEST LOWER MICHIGAN

CITY           SKY/WX    TMP DP  RH WIND       PRES   REMARKS
BATTLE CREEK   CLOUDY    65  65 100 NE6       30.01F
6HR MIN TEMP:  65; 6HR MAX TEMP:  69;

BENTON HARBOR  CLEAR     66  63  90 CALM      29.99F
6HR MIN TEMP:  66; 6HR MAX TEMP:  74;

BIG RAPIDS     CLOUDY    66  62  87 E5        30.04F
6HR MIN TEMP:  66; 6HR MAX TEMP:  71;

COLDWATER      CLEAR     65  65  98 NE3       29.99F
6HR MIN TEMP:  65; 6HR MAX TEMP:  73;

FREMONT        CLOUDY    66  65  96 E8        30.03S
HOLLAND        PTCLDY    66  62  87 E5        30.02F
6HR MIN TEMP:  66; 6HR MAX TEMP:  72;

GRAND RAPIDS   CLOUDY    66  62  87 NE8       30.02F
6HR MIN TEMP:  65; 6HR MAX TEMP:  70;

IONIA          LGT RAIN  64  63  95 NE6       30.02F
6HR MIN TEMP:  64; 6HR MAX TEMP:  67; 6HR PCP:  0.09;

KALAMAZOO      CLOUDY    68  63  84 N7        30.00F
6HR MIN TEMP:  68; 6HR MAX TEMP:  72;

LUDINGTON      CLEAR     62  62 100 CALM      30.03S
6HR MIN TEMP:  61; 6HR MAX TEMP:  73;

MARSHALL       CLOUDY    67  66  95 NE3       29.99F
6HR MIN TEMP:  67; 6HR MAX TEMP:  72;

MOUNT PLEASANT CLOUDY    65  60  85 N3        30.03F
6HR MIN TEMP:  65; 6HR MAX TEMP:  68;

MUSKEGON       CLEAR     66  63  90 E5        30.02F
6HR MIN TEMP:  66; 6HR MAX TEMP:  73;

SOUTH HAVEN    CLOUDY    67  65  96 CALM      30.00F
$$
MIZ016>042-310700-
NORTHERN LOWER MICHIGAN

CITY           SKY/WX    TMP DP  RH WIND       PRES   REMARKS
ALPENA         CLOUDY    63  57  81 CALM      30.07F
6HR MIN TEMP:  61; 6HR MAX TEMP:  72;

BEAVER ISLAND  CLEAR     60  56  88 CALM      30.06S
6HR MIN TEMP:  60; 6HR MAX TEMP:  73;

BELLAIRE       CLEAR     53  49  87 CALM      30.06S
6HR MIN TEMP:  53; 6HR MAX TEMP:  78;

CADILLAC       CLOUDY    63  57  81 E5        30.06S
CHARLEVOIX     CLEAR     62  49  63 SE3       30.09S
6HR MIN TEMP:  61; 6HR MAX TEMP:  76;

FRANKFORT      PTCLDY    64  59  85 SE3       30.03F
GAYLORD        PTCLDY    62  49  62 NE3       30.08F
6HR MIN TEMP:  62; 6HR MAX TEMP:  75;

GRAYLING       CLOUDY    64  55  72 NE3       30.07F
HARBOR SPRINGS PTCLDY    60  53  77 E3        30.07R
HOUGHTON LAKE  CLOUDY    63  56  78 E6        30.07F
6HR MIN TEMP:  63; 6HR MAX TEMP:  70;

MANISTEE       PTCLDY    62  61  96 E3        30.03F
OSCODA         RAIN      64  62  96 NE6       30.05F
6HR MIN TEMP:  63; 6HR MAX TEMP:  70; 6HR PCP:  0.04;

PELLSTON       PTCLDY    50  47  89 CALM      30.08R
6HR MIN TEMP:  49; 6HR MAX TEMP:  75;

ROGERS CITY    CLOUDY    58  53  82 CALM      30.08S
TRAVERSE CITY  PTCLDY    65  60  84 CALM      30.03F
6HR MIN TEMP:  65; 6HR MAX TEMP:  80;

$$
MIZ007>008-015-310700-
EASTERN UPPER MICHIGAN

CITY           SKY/WX    TMP DP  RH WIND       PRES   REMARKS
KINROSS        PTCLDY    61  55  81 CALM      30.08F
6HR MIN TEMP:  60; 6HR MAX TEMP:  73;

MACKINAC ISLAN CLEAR     60  55  84 NE6       30.07S
6HR MIN TEMP:  60; 6HR MAX TEMP:  71;

S. S. MARIE    CLEAR     62  57  83 E3        30.08S
6HR MIN TEMP:  62; 6HR MAX TEMP:  76;

$$
MIZ004>006-011>014-085-310700-
CENTRAL UPPER MICHIGAN

CITY           SKY/WX    TMP DP  RH WIND       PRES   REMARKS
MANISTIQUE     CLEAR     55  53  93 N3        30.07S
6HR MIN TEMP:  54; 6HR MAX TEMP:  72;

ESCANABA       CLEAR     55  52  88 CALM      30.05S
6HR MIN TEMP:  54; 6HR MAX TEMP:  73;

MENOMINEE      CLEAR    N/A N/A N/A N5        30.05F
$$
MIZ001>003-009>011-084-310700-
WESTERN UPPER MICHIGAN

CITY           SKY/WX    TMP DP  RH WIND       PRES   REMARKS
IRON MOUNTAIN  CLEAR     55  51  86 CALM      30.08S
6HR MIN TEMP:  53; 6HR MAX TEMP:  75;

HOUGHTON       CLEAR     61  58  90 CALM      30.07S
6HR MIN TEMP:  61; 6HR MAX TEMP:  71;

COPPER HARBOR    N/A     65  58  78 SW7       30.05F
6HR MIN TEMP:  63; 6HR MAX TEMP:  73;

IRONWOOD       CLEAR     64  57  77 S9        30.05R
6HR MIN TEMP:  61; 6HR MAX TEMP:  75;

$$

ABBREVIATIONS USED IN REMARKS
   TC - TEMPERATURE IN CELSIUS
  WCI - WIND CHILL INDEX
   HX - HEAT INDEX
  VSB - VISIBILITY





USA.gov is the U.S. government's official web portal to all federal, state and local government web resources and services.